Location: Unspecified
(56.5167°N, 0.0000°E)
Time: 04:13:52
(UTC+02:00)

Cosmos 2058 - Visible Passes

Search period start: 26 September 2023 00:00
Search period end: 06 October 2023 00:00
Orbit: 552 x 574 km, 82.5° (Epoch: 25 September)

Date Brightness Start Highest point End Pass type
(mag) Time Alt. Az. Time Alt. Az. Time Alt. Az.
26 Sep 5.7 01:15:25 10° N 01:16:23 15° NNE 01:16:23 15° NNE visible
26 Sep 5.8 02:51:57 10° NNW 02:52:21 12° NNW 02:52:21 12° NNW visible
27 Sep 5.7 01:15:13 10° N 01:16:06 15° N 01:16:06 15° N visible
27 Sep 5.9 02:51:53 10° NNW 02:52:04 11° NNW 02:52:04 11° NNW visible
28 Sep 5.8 01:15:01 10° N 01:15:49 15° N 01:15:49 15° N visible
29 Sep 5.8 01:14:49 10° N 01:15:32 14° N 01:15:32 14° N visible
30 Sep 5.9 01:14:37 10° N 01:15:14 14° N 01:15:14 14° N visible
01 Oct 5.9 01:14:26 10° N 01:14:57 13° N 01:14:57 13° N visible
02 Oct 6.0 01:14:15 10° N 01:14:40 13° N 01:14:40 13° N visible
03 Oct 6.0 01:14:03 10° N 01:14:22 12° N 01:14:22 12° N visible
04 Oct 6.1 01:13:52 10° NNW 01:14:05 11° NNW 01:14:05 11° NNW visible
04 Oct 5.8 23:37:46 10° NNE 23:37:48 10° NNE 23:37:48 10° NNE visible
05 Oct 6.2 01:13:40 10° NNW 01:13:47 11° NNW 01:13:47 11° NNW visible
05 Oct 5.8 23:37:23 10° NNE 23:37:30 10° NNE 23:37:30 10° NNE visible
